Satellite: AO-40 Catalog number: 26609 Epoch time: 02257.65303241 Element set: 263 Inclination: 7.6084 deg RA of node: 94.0466 deg Eccentricity: 0.7929815 Arg of perigee: 89.7797 deg Mean anomaly: 350.3441 deg Mean motion: 1.25597043 rev/day Decay rate: -4.81000e-06 rev/day^2 Epoch rev: 861 Checksum: 315